Home   Weather   Richmond Hill   Past weeks

Flag for Canada Past Weather in Richmond Hill, Ontario, Canada — Yesterday and Last 2 Weeks

Now
37 °F

Drizzle. Fog.


Feels Like: 35 °F
Forecast: 36 / 41 °F
Wind: 3 mph from West

Location: Toronto Buttonville

Current Time: Jan 21, 2017 at 1:54:20 am

Latest Report: Jan 21, 2017 at 1:13 am


Visibility: 1 mi

Pressure: 29.78 "Hg

Humidity: 93%

Dew Point: 36 °F

Location of Richmond HillLocation

Past Weather in Richmond Hill — Graph

°F

Richmond Hill Temperature Yesterday

Maximum temperature yesterday: 37 °F (at 11:20 am)
Minimum temperature yesterday: 34 °F (at 12:00 am)
Average temperature yesterday: 36 °F

High & Low Weather Summary for the Past Weeks

 TemperatureHumidityPressure
High46 °F (Jan 12, 3:00 am)100% (Jan 10, 6:06 pm)30.81 "Hg (Jan 10, 6:06 pm)
Low7 °F (Jan 7, 5:00 am)48% (Jan 16, 4:00 pm)29.45 "Hg (Jan 11, 12:00 am)
Average27 °F79%30.12 "Hg
* Reported Jan 6 12:00 am — Jan 21 12:00 am, Richmond Hill, Weather by CustomWeather, © 2017

Note: Actual official high and low records may vary slightly from our data, if they occured in-between our weather recording intervals... More about our weather records

Advertising

Richmond Hill Weather History for the Previous 24 Hours

Scroll right to see more
 ConditionsComfort  
Time TempWeatherWind HumidityBarometerVisibility
12:00 am
Sat, Jan 21
37 °FDrizzle. Fog.3 mph93%29.78 "Hg1 mi
11:32 pm
Fri, Jan 20
36 °FDrizzle. Fog.2 mph100%29.77 "Hg1 mi
11:00 pm36 °FDrizzle. Fog.5 mph100%29.77 "Hg1 mi
10:40 pm36 °FDrizzle. Fog.2 mph100%29.76 "Hg1 mi
10:24 pm36 °FDrizzle. Fog.5 mph100%29.76 "Hg1 mi
10:01 pm37 °FDrizzle. Fog.3 mph93%29.77 "Hg1 mi
9:41 pm37 °FDrizzle. Fog.7 mph93%29.76 "Hg2 mi
9:12 pm37 °FDrizzle. Fog.5 mph93%29.77 "Hg2 mi
9:00 pm37 °FDrizzle. Fog.6 mph93%29.76 "Hg2 mi
8:43 pm37 °FDrizzle. Fog.6 mph93%29.77 "Hg2 mi
8:00 pm36 °FDrizzle. Fog.5 mph100%29.77 "Hg2 mi
7:00 pm37 °FMostly cloudy.5 mph93%29.77 "Hg8 mi
6:00 pm37 °FMostly cloudy.6 mph87%29.76 "Hg8 mi
5:00 pm37 °FMostly cloudy.9 mph87%29.75 "Hg8 mi
4:00 pm37 °FMostly cloudy.8 mph87%29.75 "Hg8 mi
3:00 pm37 °FLow clouds.12 mph87%29.74 "Hg10 mi
2:00 pm37 °FLow clouds.13 mph87%29.75 "Hg10 mi
1:00 pm36 °FLow clouds.9 mph93%29.77 "Hg10 mi
12:00 pm37 °FLow clouds.13 mph87%29.79 "Hg8 mi
11:20 am37 °FLow clouds.13 mph87%29.81 "Hg8 mi
10:00 am36 °FOvercast.6 mph87%29.84 "Hg12 mi
9:00 am36 °FOvercast.8 mph87%29.83 "Hg12 mi
8:25 am36 °FOvercast.10 mph93%29.84 "Hg7 mi
8:00 am34 °FFog.5 mph93%29.85 "Hg5 mi
7:36 am34 °FLow clouds.5 mph93%29.85 "Hg7 mi
7:00 am34 °FMostly cloudy.No wind93%29.86 "Hg8 mi
6:46 am34 °FMostly cloudy.3 mph93%29.86 "Hg8 mi
6:00 am34 °FLow clouds.5 mph93%29.88 "Hg10 mi
5:00 am34 °FLow clouds.6 mph93%29.90 "Hg8 mi
4:00 am34 °FLow clouds.5 mph93%29.92 "Hg8 mi
3:00 am34 °FLow clouds.5 mph93%29.94 "Hg10 mi
2:00 am34 °FLow clouds.5 mph87%29.95 "Hg10 mi
1:00 am34 °FLow clouds.6 mph87%29.97 "Hg8 mi
Weather by CustomWeather, © 2017

See weather overviewHow to use our weather pages